Regional Weather Roundup
Issued by NWS Charleston, SC

Current Version | Previous Version | Graphics & Text | Print | Product List | Glossary On
Versions: 1 2 3 4 5 6 7 8 9 10 11 12 13 14 15 16 17 18 19 20 21 22 23 24 25 26 27 28 29 30 31 32 33 34 35 36 37 38 39 40 41 42 43 44 45 46 47 48 49 50
000 ASUS42 KCHS 220412 RWRCHS REGIONAL WEATHER ROUNDUP NATIONAL WEATHER SERVICE CHARLESTON SC 1200 AM EDT SUN OCT 22 2017 NOTE: "FAIR" INDICATES FEW OR NO CLOUDS BELOW 12,000 FEET WITH NO SIGNIFICANT WEATHER AND/OR OBSTRUCTIONS TO VISIBILITY. NOT ALL STATIONS ARE QUALITY CONTROLLED. USE DATA WITH CAUTION... ESPECIALLY DEWPOINT OBSERVATIONS. SCZ027-030-031-034>040-042>050-220500- ...SOUTHEAST SOUTH CAROLINA... CITY SKY/WX TMP DP RH WIND PRES REMARKS N CHARLESTON PTCLDY 67 65 93 NE6 30.28S WATERFRONT PRK NOT AVBL JOHNS ISLAND FAIR 72 68 88 NE9 30.28S PINOPOLIS N/A 68 64 88 E6 30.21F MONCKS CORNER FAIR 64 63 94 E5 30.29F SUMMERVILLE FAIR 63 61 94 CALM 30.30S BEAUFORT MCAS CLOUDY 70 67 90 MISG 30.27F BEAUFORT ARPT FAIR 70 66 88 NE8 30.26F HILTON HEAD IS CLOUDY 73 68 83 NE9 30.26F WALTERBORO MOCLDY 64 63 94 E3 30.29F ALLENDALE N/A 68 63 83 VRB5 N/A ...SOUTHERN MIDLANDS AND PEE DEE... CITY SKY/WX TMP DP RH WIND PRES REMARKS GEORGETOWN FAIR 63 63 100 CALM 30.31F KINGSTREE FAIR 57 55 94 CALM 30.30F ORANGEBURG PTCLDY 60 58 92 CALM 30.30F BARNWELL N/A 64 61 88 CALM 30.29F AIKEN FAIR 63 55 77 E5 30.33S MANNING FAIR 61 59 94 MISG 30.30F COLUMBIA MOCLDY 61 58 90 CALM 30.30S SUMTER PTCLDY 59 54 82 CALM 30.29F FLORENCE CLOUDY 59 57 93 CALM 30.32F MYRTLE BEACH PTCLDY 70 65 84 NE7 30.32F N MYRTLE BEACH CLOUDY 65 64 97 NE5 30.31F $$ GAZ063-065-086>088-099>101-113>116-118-119-134>141-150-220500- ...SOUTHEAST GEORGIA... CITY SKY/WX TMP DP RH WIND PRES REMARKS SAVANNAH ARPT CLOUDY 69 67 93 NE5 30.26F HUNTER AAF CLOUDY 70 67 89 NE6 30.22F FORT STEWART CLOUDY 68 65 90 NE3 30.23F STATESBORO MOCLDY 69 61 75 E3 30.27F SYLVANIA CLOUDY 67 65 94 E6 30.28F CLAXTON FAIR 66 64 95 CALM 30.26F ...CSRA...CENTRAL AND FAR SOUTHEAST GEORGIA... CITY SKY/WX TMP DP RH WIND PRES REMARKS THOMSON CLOUDY 58 54 86 S5 30.33F AUGUSTA-BUSH PTCLDY 59 54 83 CALM 30.28F AUGUSTA-DANIEL PTCLDY 68 54 60 E5 30.30S SWAINSBORO FAIR 66 63 88 MISG 30.27F VIDALIA CLOUDY 68 64 88 E5 30.26F EASTMAN FAIR 69 55 61 CALM 30.28S HAZLEHURST FAIR 71 60 69 E6 30.24F ALMA CLOUDY 69 66 90 NE3 30.23F WAYCROSS CLOUDY 69 66 90 E6 30.23F JESUP NOT AVBL BAXLEY FAIR 66 64 94 E6 30.24F BRUNSWICK PTCLDY 70 66 88 CALM 30.24S SAINT SIMONS CLOUDY 75 69 81 E8 30.22F $$ SCZ027-028-034-036>038-045-046-048>050-GAZ119-141-220500- ...LAKE AND SUPPLEMENTAL COASTAL OBSERVATIONS... STATION/POSITION TIME TEMP WIND PRES WAVE SWELL AIR SEA DIR/SP/G HT/PER HT/PER/DIR (UTC) (F) (DEG/KT/KT) (MB) (FT/S) (FT/S/D) WINYAH BAY 0245 73 80/ 9 1026.0 LAKE MURRAY 0320 70 90/ 4/ 5 1025.4 ACE BASIN NERRS 0245 68 10/ 1 1025.0 FORT PULASKI 0348 73 73 60/ 11/ 15 1024.6F SAPELO ISLAND NOT AVBL $$ ANZ835-935-AMZ111-154-330-350-352-354-370-450-454-472-220500- ...C-MAN AND BUOY OBSERVATIONS... STATION/POSITION TIME TEMP WIND PRES WAVE SWELL AIR SEA DIR/SP/G HT/PER HT/PER/DIR (UTC) (F) (DEG/KT/KT) (MB) (FT/S) (FT/S/D) BUOY 41004 0350 78 80 100/ 14/ 17 1024.5F 4/ 9 2/ 90/ 9 BUOY 41008 0350 78 77 90/ 14/ 16 1023.2F 4/ 6 2/130/ 9 FOLLY BEACH CMAN 0300 73 50/ 12/ 14 1025.9F CAPERS NEARSHORE 0308 71 73 70/ 14/ 17 1025.1F FRIPP NEARSHORE 0308 75 60/ 14/ 17 N/A STATION/POSITION TIME TEMP WIND PRES WAVE SWELL AIR SEA DIR/SP/G HT/PER HT/PER/DIR (UTC) (F) (DEG/KT/KT) (MB) (FT/S) (FT/S/D) 5E ST. MARYS GA 0400 77 N/A 4/ 5 FRYING PAN BUOY 0350 76 76 40/ 12/ 14 1025.7F 3/ 8 2/120/ 8 BUOY 41025 0350 75 81 80/ 8/ 12 1026.9F 3/ 9 3/130/ 9 CAPE LOOKOUT NC 0300 73 60/ 9/ 10 1027.0F BUOY 41002 0350 76 80 90/ 12/ 16 1025.6F 4/ 8 3/ 90/ 8 BUOY 41010 NOT AVBL ST AUGUSTINE FL 0400 76 78 100/ 17/ 18 1023.0S $$

USA.gov is the U.S. government's official web portal to all federal, state and local government web resources and services.